Voltar ao catálogo

KUIPER-00599

AtivoComunicaçõesLEO
NORAD 69283·PAYLOAD·🇺🇸 United States

Lançado May 29, 2026 de Vandenberg Space Force Base

Loading…

Próximas Passagens (próximas 24 horas)

TLE

AtualizadoSource: CelesTrak SupGP

Época: Sep 14, 2026, 20:54 UTC

1 69283C 26118S   26257.87123843  .00005055  00000+0  66175-3 0  2573
2 69283  51.9018 358.9994 0000278 136.7283 206.9511 14.79921364    19

Acompanhe KUIPER-00599 em tempo real com AllMySat

Download on the App Store